Regional Weather Roundup
Issued by NWS

Home | Current Version | Previous Version | Text Only | Print | Product List | Glossary Off
Versions: 1 2 3 4 5 6 7 8 9 10 11 12 13 14 15 16 17 18 19 20 21 22 23 24 25 26 27 28 29 30 31 32 33 34 35 36 37 38 39 40 41 42 43 44 45 46 47 48 49 50

000
ASUS45 KBOI 180510
RWRID
WEATHER ROUNDUP FOR IDAHO
NATIONAL WEATHER SERVICE BOISE ID
1100 PM MDT WED SEP 17 2014

NOTE: "FAIR" INDICATES FEW OR NO CLOUDS BELOW 12000 FEET
WITH NO SIGNIFICANT WEATHER AND/OR OBSTRUCTIONS TO VISIBILITY

IDZ012-014-180600-
SOUTHWEST IDAHO


CITY           SKY/WX    TMP DP  RH WIND       PRES   REMARKS
BOISE          PTCLDY    75  38  26 S5        29.70S
CALDWELL       PTCLDY    66  46  48 CALM      29.69F
MOUNTAIN HOME  CLOUDY    76  38  25 S7        29.72R
$$

IDZ016-017-180600-
SOUTHCENTRAL IDAHO


CITY           SKY/WX    TMP DP  RH WIND       PRES   REMARKS
BURLEY         LGT RAIN  75  49  39 W15G24    29.85R
JEROME         MOCLDY    75  46  35 SE10      29.84R
TWIN FALLS     CLOUDY    75  46  35 SE9       29.83F
$$

IDZ019>023-180600-
SOUTHEAST IDAHO


CITY           SKY/WX    TMP DP  RH WIND       PRES   REMARKS
IDAHO FALLS    CLEAR     57  47  69 N3        29.90S
POCATELLO      CLEAR     75  37  25 S10       29.87S
REXBURG        CLEAR     60  45  57 N3        29.92R
$$

IDZ006-010-011-018-031-032-180600-
CENTRAL IDAHO MOUNTAINS


CITY           SKY/WX    TMP DP  RH WIND       PRES   REMARKS
MCCALL         PTCLDY    56  39  53 CALM      29.86F
HAILEY         PTCLDY    64  43  45 W8        29.95R
STANLEY          N/A     51  35  54 S3        30.02S
SALMON         PTCLDY    52  46  82 CALM      29.86S
CHALLIS        PTCLDY    59  39  47 CALM      29.92S
$$

IDZ002-004-006-007-026-180600-
NORTHERN IDAHO


CITY           SKY/WX    TMP DP  RH WIND       PRES   REMARKS
LEWISTON       PTCLDY    72  42  34 SE5       29.64F
LOWELL           N/A     60  57  89 NW3       29.72S
COEUR D`ALENE  MOCLDY    64  48  55 CALM      29.69S
MULLAN PASS    MOCLDY    63  39  41 W6        29.92F
$$


USA.gov is the U.S. government's official web portal to all federal, state and local government web resources and services.